WB0VHB-WX Weather Reports


time (UTC)temp
F
wind
direction
speed
knots
gust
knots
rain 1hr
in
rain 24hr
in
rain mn
in
humidity
%
barometer
mb
20260906072703 74 72 3.5 10.4 0.00 0.00 0.00 78 1014.9
20260906071803 75 65 3.5 7.8 0.00 0.00 0.00 78 1014.9
20260906070903 75 70 3.5 7.8 0.00 0.00 0.00 78 1015.0
20260906070024 75 83 3.5 7.8 0.00 0.00 0.00 78 1015.0
20260906065424 75 77 3.5 7.8 0.00 0.00 0.00 78 1015.0
20260906064524 75 62 3.5 7.8 0.00 0.00 0.00 78 1015.2
20260906063603 75 61 2.6 7.8 0.00 0.00 0.00 79 1015.2
20260906062703 75 70 1.7 4.3 0.00 0.00 0.00 79 1015.2
20260906061803 75 74 0.9 3.5 0.00 0.00 0.00 79 1015.2
20260906060903 75 78 1.7 2.6 0.00 0.00 0.00 79 1015.1
20260906060003 75 77 1.7 5.2 0.00 0.00 0.00 79 1015.3
20260906055403 75 75 1.7 5.2 0.00 0.00 0.00 79 1015.3
20260906054503 75 68 1.7 4.3 0.00 0.00 0.00 79 1015.2
20260906053624 75 65 1.7 4.3 0.00 0.00 0.00 79 1015.3
20260906052703 76 64 1.7 4.3 0.00 0.00 0.00 79 1015.2
20260906051824 76 59 1.7 4.3 0.00 0.00 0.00 78 1015.1
20260906050903 76 53 1.7 3.5 0.00 0.00 0.00 78 1015.1
20260906050025 76 68 1.7 5.2 0.00 0.00 0.00 78 1014.9
20260906045403 76 73 1.7 5.2 0.00 0.00 0.00 78 1014.9
20260906044503 76 77 1.7 5.2 0.00 0.00 0.00 78 1014.8
20260906043625 77 83 2.6 6.1 0.00 0.00 0.00 78 1014.6
20260906042724 77 68 2.6 7.8 0.00 0.00 0.00 77 1014.5
20260906041803 77 65 3.5 7.0 0.00 0.00 0.00 77 1014.3
20260906040903 77 74 3.5 7.8 0.00 0.00 0.00 77 1014.3
20260906040003 77 71 3.5 7.8 0.00 0.00 0.00 77 1014.3
20260906035403 77 70 3.5 7.0 0.00 0.00 0.00 77 1014.2
20260906034503 78 66 3.5 7.0 0.00 0.00 0.00 77 1014.2
20260906033603 78 74 3.5 7.0 0.00 0.00 0.00 77 1014.0
20260906032703 78 80 4.3 7.8 0.00 0.00 0.00 77 1013.9
20260906031824 78 83 4.3 8.7 0.00 0.00 0.00 77 1013.8
20260906030903 78 87 4.3 7.8 0.00 0.00 0.00 78 1013.7
20260906030004 78 91 2.6 7.0 0.00 0.00 0.00 78 1013.6
20260906025403 79 90 2.6 6.1 0.00 0.00 0.00 78 1013.7
20260906024524 79 81 2.6 7.8 0.00 0.00 0.00 78 1013.7
20260906023603 79 71 3.5 7.0 0.00 0.00 0.00 78 1013.7
20260906022703 79 62 2.6 7.0 0.00 0.00 0.00 78 1013.6
20260906021803 79 61 1.7 4.3 0.00 0.00 0.00 78 1013.6
20260906020903 80 51 0.9 3.5 0.00 0.00 0.00 77 1013.5
20260906020003 80 59 1.7 3.5 0.00 0.00 0.00 77 1013.4
20260906015403 80 60 1.7 3.5 0.00 0.00 0.00 77 1013.3
20260906014524 80 59 1.7 4.3 0.00 0.00 0.00 77 1013.1
20260906013603 81 54 1.7 5.2 0.00 0.00 0.00 76 1012.9
20260906012703 81 59 3.5 7.0 0.00 0.00 0.00 76 1012.8
20260906011803 82 59 3.5 8.7 0.00 0.00 0.00 76 1012.6
20260906010903 82 60 3.5 7.0 0.00 0.00 0.00 76 1012.5
20260906010003 83 59 3.5 7.8 0.00 0.00 0.00 75 1012.5
20260906005403 83 59 3.5 8.7 0.00 0.00 0.00 75 1012.5
20260906004503 84 56 2.6 11.3 0.00 0.00 0.00 74 1012.6
20260906003603 85 53 3.5 7.8 0.00 0.00 0.00 73 1012.4
20260906002703 86 57 3.5 8.7 0.00 0.00 0.00 72 1012.4
20260906001803 86 62 3.5 7.8 0.00 0.00 0.00 71 1012.4
20260906000903 87 71 2.6 4.3 0.00 0.00 0.00 70 1012.3
20260906000024 87 58 2.6 4.3 0.00 0.00 0.00 69 1012.3
20260905235403 88 61 3.5 6.1 0.00 0.00 0.00 68 1012.2
20260905234504 88 64 3.5 7.0 0.00 0.00 0.00 67 1012.1
20260905233603 89 56 2.6 8.7 0.00 0.00 0.00 67 1012.2
20260905232703 89 59 0.9 3.5 0.00 0.00 0.00 67 1012.2
20260905231803 90 63 1.7 4.3 0.00 0.00 0.00 67 1012.1
20260905230924 90 62 1.7 4.3 0.00 0.00 0.00 67 1012.0
20260905230004 90 62 2.6 7.0 0.00 0.00 0.00 67 1012.0
20260905225403 90 65 4.3 8.7 0.00 0.00 0.00 65 1011.9
20260905224524 91 59 2.6 8.7 0.00 0.00 0.00 64 1011.9
20260905223603 92 52 0.9 3.5 0.00 0.00 0.00 64 1011.8
20260905222724 92 50 0.9 5.2 0.00 0.00 0.00 63 1011.8
20260905221803 92 42 0.9 3.5 0.00 0.00 0.00 62 1011.9
20260905220903 92 65 1.7 7.8 0.00 0.00 0.00 63 1011.9
20260905220003 92 20 1.7 5.2 0.00 0.00 0.00 63 1011.8
20260905215403 92 45 1.7 5.2 0.00 0.00 0.00 62 1011.7
20260905214503 92 47 0.9 3.5 0.00 0.00 0.00 62 1011.9
20260905213603 92 44 0.9 3.5 0.00 0.00 0.00 65 1011.9
20260905212703 91 48 0.9 4.3 0.00 0.00 0.00 67 1011.9
20260905211803 91 41 1.7 5.2 0.00 0.00 0.00 65 1012.0
20260905210925 92 37 0.9 6.1 0.00 0.00 0.00 65 1012.1
20260905210004 92 21 0.9 4.3 0.00 0.00 0.00 64 1012.2
20260905205424 92 23 0.9 3.5 0.00 0.00 0.00 66 1012.2
20260905204503 92 2 0.0 2.6 0.00 0.00 0.00 64 1012.3
20260905203603 92 56 1.7 6.1 0.00 0.00 0.00 64 1012.3
20260905202703 92 28 0.9 2.6 0.00 0.00 0.00 64 1012.3
20260905201803 92 4 0.0 2.6 0.00 0.00 0.00 64 1012.5
20260905200903 92 1 0.9 2.6 0.00 0.00 0.00 63 1012.5
20260905200003 91 6 0.9 2.6 0.00 0.00 0.00 65 1012.5
20260905195403 92 3 0.0 2.6 0.00 0.00 0.00 64 1012.6
20260905194503 92 358 0.9 2.6 0.00 0.00 0.00 65 1012.7
20260905193603 92 47 0.9 2.6 0.00 0.00 0.00 64 1012.6
20260905192724 92 6 0.9 2.6 0.00 0.00 0.00 63 1012.7
20260905191803 92 11 0.9 2.6 0.00 0.00 0.00 64 1012.7
20260905190903 92 45 0.9 2.6 0.00 0.00 0.00 64 1012.9
20260905190003 92 41 0.9 2.6 0.00 0.00 0.00 63 1013.0
20260905185424 92 61 1.7 5.2 0.00 0.00 0.00 63 1013.0
20260905184503 93 62 0.9 3.5 0.00 0.00 0.00 61 1012.9
20260905183603 93 39 0.9 2.6 0.00 0.00 0.00 61 1013.0
20260905182703 93 5 0.9 2.6 0.00 0.00 0.00 61 1013.0
20260905181824 93 360 0.9 2.6 0.00 0.00 0.00 62 1013.0
20260905180903 92 358 1.7 3.5 0.00 0.00 0.00 60 1013.0
20260905180003 92 38 1.7 4.3 0.00 0.00 0.00 62 1013.1
20260905175404 92 42 1.7 4.3 0.00 0.00 0.00 62 1013.1
20260905174503 92 2 1.7 4.3 0.00 0.00 0.00 61 1013.1
20260905173624 92 357 1.7 4.3 0.00 0.00 0.00 61 1013.1
20260905172703 92 28 0.9 4.3 0.00 0.00 0.00 63 1013.3
20260905171803 92 29 1.7 5.2 0.00 0.00 0.00 63 1013.3
20260905170904 92 347 1.7 3.5 0.00 0.00 0.00 64 1013.4
20260905170003 91 315 0.9 3.5 0.00 0.00 0.00 62 1013.5
20260905165403 91 328 1.7 3.5 0.00 0.00 0.00 63 1013.5
20260905164524 91 333 0.9 4.3 0.00 0.00 0.00 62 1013.5
20260905163603 91 341 0.9 4.3 0.00 0.00 0.00 64 1013.5
20260905162703 91 335 1.7 3.5 0.00 0.00 0.00 63 1013.6
20260905161824 90 342 0.9 3.5 0.00 0.00 0.00 64 1013.6
20260905160903 90 322 1.7 6.1 0.00 0.00 0.00 64 1013.5
20260905160024 90 319 1.7 4.3 0.00 0.00 0.00 62 1013.5
20260905155403 90 321 1.7 4.3 0.00 0.00 0.00 63 1013.4
20260905154524 90 310 1.7 4.3 0.00 0.00 0.00 63 1013.3
20260905153625 90 289 1.7 5.2 0.00 0.00 0.00 62 1013.2
20260905152703 89 299 1.7 6.1 0.00 0.00 0.00 61 1013.1
20260905151803 89 300 2.6 7.0 0.00 0.00 0.00 63 1013.1
20260905150903 89 306 0.9 4.3 0.00 0.00 0.00 63 1012.9
20260905150003 89 290 1.7 5.2 0.00 0.00 0.00 63 1012.9
20260905145424 89 294 1.7 5.2 0.00 0.00 0.00 63 1013.0
20260905144503 88 292 1.7 5.2 0.00 0.00 0.00 63 1012.9
20260905143603 88 265 0.9 3.5 0.00 0.00 0.00 65 1012.9
20260905142724 87 262 0.0 1.7 0.00 0.00 0.00 64 1012.9
20260905141803 87 241 0.9 3.5 0.00 0.00 0.00 65 1012.9
20260905140903 86 242 0.9 2.6 0.00 0.00 0.00 66 1012.7
20260905140004 86 244 0.0 2.6 0.00 0.00 0.00 67 1012.8
20260905135403 86 259 0.0 1.7 0.00 0.00 0.00 67 1012.9
20260905134504 85 242 0.9 2.6 0.00 0.00 0.00 68 1012.7
20260905133603 84 258 0.0 2.6 0.00 0.00 0.00 69 1012.5
20260905132703 82 0 0.0 0.0 0.00 0.00 0.00 71 1012.5
20260905131804 81 220 0.0 0.9 0.00 0.00 0.00 74 1012.4
20260905130903 80 221 0.0 2.6 0.00 0.00 0.00 76 1012.5
20260905130003 79 220 0.0 1.7 0.00 0.00 0.00 77 1012.4
20260905125403 78 209 0.9 2.6 0.00 0.00 0.00 78 1012.5
20260905124503 77 204 0.0 2.6 0.00 0.00 0.00 78 1012.3
20260905123603 76 235 0.0 0.9 0.00 0.00 0.00 78 1012.4
20260905122703 76 231 0.0 0.9 0.00 0.00 0.00 79 1012.5
20260905121803 75 218 0.9 1.7 0.00 0.00 0.00 79 1012.4
20260905120924 75 216 0.9 2.6 0.00 0.00 0.00 79 1012.4
20260905120003 75 0 0.0 0.0 0.00 0.00 0.00 79 1012.3
20260905115424 75 226 0.0 0.9 0.00 0.00 0.00 79 1012.3
20260905114503 75 226 0.0 1.7 0.00 0.00 0.00 79 1012.0
20260905113603 75 0 0.0 0.0 0.00 0.00 0.00 79 1011.9
20260905112703 75 226 0.0 0.9 0.00 0.00 0.00 79 1011.7
20260905111803 75 226 0.0 1.7 0.00 0.00 0.00 79 1011.7
20260905110903 75 226 0.0 2.6 0.00 0.00 0.00 78 1011.7
20260905110003 75 225 0.9 1.7 0.00 0.00 0.00 78 1011.6
20260905105403 76 213 0.9 3.5 0.00 0.00 0.00 78 1011.6
20260905104503 76 216 0.9 3.5 0.00 0.00 0.00 78 1011.5
20260905103603 76 207 0.9 3.5 0.00 0.00 0.00 78 1011.5
20260905102724 76 210 0.9 1.7 0.00 0.00 0.00 78 1011.5
20260905101803 76 214 0.0 0.9 0.00 0.00 0.00 78 1011.5
20260905100903 76 0 0.0 0.0 0.00 0.00 0.00 78 1011.5
20260905100003 76 0 0.0 0.0 0.00 0.00 0.00 78 1011.6
20260905095403 76 210 0.0 0.9 0.00 0.00 0.00 78 1011.7
20260905094503 76 212 0.9 1.7 0.00 0.00 0.00 77 1011.8
20260905093603 77 229 0.0 0.9 0.00 0.00 0.00 77 1011.7
20260905092703 77 227 0.0 0.9 0.00 0.00 0.00 77 1011.8
20260905091824 77 227 0.9 2.6 0.00 0.00 0.00 77 1011.8
20260905090903 77 227 0.0 1.7 0.00 0.00 0.00 77 1011.8
20260905090004 77 228 0.9 1.7 0.00 0.00 0.00 77 1011.9
20260905085403 77 223 0.0 1.7 0.00 0.00 0.00 77 1011.9
20260905084503 77 215 0.9 1.7 0.00 0.00 0.00 77 1011.9
20260905083603 77 214 0.0 1.7 0.00 0.00 0.00 77 1011.9
20260905082703 77 192 0.0 0.9 0.00 0.00 0.00 77 1011.9
20260905081803 77 117 0.0 0.9 0.00 0.00 0.00 77 1012.0
20260905080903 78 201 0.9 1.7 0.00 0.00 0.00 77 1011.9
20260905080003 78 205 1.7 2.6 0.00 0.00 0.00 77 1011.9
20260905075403 78 217 1.7 4.3 0.00 0.00 0.00 76 1011.9
20260905074503 78 227 2.6 4.3 0.00 0.00 0.00 76 1011.9
20260905073603 78 227 1.7 3.5 0.00 0.00 0.00 76 1011.7